Location: Navalmoral
(40.4603°N, 4.7686°W)
Time: 21:51:27
(UTC+00:00)

Cosmos 968 Rocket - Pass Details

Date: 05 August 2024
Orbit: 738 x 767 km, 74.0° (Epoch: 17 September)

Event Time Altitude Azimuth Distance (km) Brightness Sun altitude
Rises 21:46:36 0° 346° (NNW) 3,225 7.8 -22.1°
Reaches altitude 10° 21:49:05 10° 353° (N) 2,291 6.7 -22.4°
Maximum altitude 21:54:04 46° 66° (ENE) 1,009 3.9 -23.0°
Enters shadow 21:54:37 44° 85° (E) 1,033 3.9 -23.1°
